^^
Newington, Connecticut Weather History
 
Daily Summary for July 18, 2019 Units:  English    Metric   Both
Daily Weekly Monthly Yearly Custom
  Current: High: Low: Average:
Temperature: 73 °F 75 °F 73 °F 73.6 °F
Dew Point: 72 °F 73 °F 72 °F 72.6 °F
Humidity: 97% 97% 96% 97%
Wind Speed: 0mph 1mph 0mph 0.1mph
Wind Gust: 0mph 16mph - -
WindCalm - - SSW
Pressure: 29.85 in 29.85 in 29.79 in -
Precipitation: 0.01 in      
Historical Graphs
 
 
Tabular Data for July 18, 2019
Time Temperature Dew Point Pressure Wind Wind Speed Wind Gust Humidity Rainfall Rate (Hourly) solar
00:04 75 °F 73 °F 29.83 in Calm   16 mph 96% 0.01 in 0 W/m2
00:09 75 °F 73 °F 29.83 in Calm     96% 0.01 in 0 W/m2
00:14 75 °F 73 °F 29.83 in Calm     96% 0.01 in 0 W/m2
00:19 75 °F 73 °F 29.83 in Calm     96% 0.01 in 0 W/m2
00:24 74 °F 73 °F 29.83 in Calm   1 mph 96% 0 in 0 W/m2
00:29 74 °F 73 °F 29.83 in SSW 1 mph 2 mph 96% 0 in 0 W/m2
00:34 74 °F 73 °F 29.83 in SSW 1 mph 2 mph 96% 0 in 0 W/m2
00:39 74 °F 73 °F 29.83 in Calm   1 mph 96% 0 in 0 W/m2
00:44 74 °F 73 °F 29.82 in Calm     96% 0 in 0 W/m2
00:49 74 °F 73 °F 29.82 in Calm     96% 0 in 0 W/m2
00:54 74 °F 73 °F 29.82 in Calm     96% 0 in 0 W/m2
00:59 74 °F 73 °F 29.82 in Calm   1 mph 96% 0 in 0 W/m2
01:04 74 °F 73 °F 29.81 in Calm   1 mph 96% 0 in 0 W/m2
01:09 74 °F 73 °F 29.81 in Calm   1 mph 96% 0 in 0 W/m2
01:14 74 °F 73 °F 29.81 in Calm   1 mph 96% 0 in 0 W/m2
01:19 74 °F 73 °F 29.81 in Calm     96% 0 in 0 W/m2
01:24 74 °F 73 °F 29.8 in Calm   2 mph 96% 0 in 0 W/m2
01:29 74 °F 73 °F 29.8 in SSW 1 mph 2 mph 96% 0 in 0 W/m2
01:34 74 °F 73 °F 29.79 in SSW 1 mph 2 mph 96% 0 in 0 W/m2
01:39 74 °F 73 °F 29.79 in Calm   2 mph 96% 0 in 0 W/m2
01:44 74 °F 73 °F 29.79 in Calm   1 mph 97% 0 in 0 W/m2
01:49 74 °F 73 °F 29.79 in Calm   1 mph 97% 0 in 0 W/m2
01:54 74 °F 73 °F 29.79 in Calm   1 mph 97% 0.01 in 0 W/m2
01:59 74 °F 73 °F 29.79 in Calm     97% 0.01 in 0 W/m2
02:04 74 °F 73 °F 29.79 in Calm     97% 0.01 in 0 W/m2
02:09 74 °F 73 °F 29.79 in Calm     97% 0.01 in 0 W/m2
02:14 74 °F 73 °F 29.79 in Calm   1 mph 97% 0.01 in 0 W/m2
02:19 74 °F 73 °F 29.79 in Calm   1 mph 97% 0.01 in 0 W/m2
02:24 74 °F 73 °F 29.79 in Calm   1 mph 97% 0.01 in 0 W/m2
02:29 74 °F 73 °F 29.79 in Calm     97% 0.01 in 0 W/m2
02:34 74 °F 73 °F 29.79 in Calm     97% 0.01 in 0 W/m2
02:39 74 °F 73 °F 29.79 in Calm     97% 0.01 in 0 W/m2
02:44 74 °F 73 °F 29.79 in Calm     97% 0.01 in 0 W/m2
02:49 74 °F 73 °F 29.79 in Calm   1 mph 97% 0.01 in 0 W/m2
02:54 74 °F 73 °F 29.79 in Calm   1 mph 97% 0 in 0 W/m2
02:59 74 °F 73 °F 29.79 in Calm   2 mph 97% 0 in 0 W/m2
03:04 74 °F 73 °F 29.79 in Calm   2 mph 97% 0 in 0 W/m2
03:09 74 °F 73 °F 29.79 in Calm   2 mph 97% 0 in 0 W/m2
03:14 74 °F 73 °F 29.79 in Calm     97% 0 in 0 W/m2
03:19 74 °F 73 °F 29.79 in Calm     97% 0 in 0 W/m2
03:24 74 °F 73 °F 29.79 in Calm     97% 0 in 0 W/m2
03:29 74 °F 73 °F 29.79 in Calm     97% 0 in 0 W/m2
03:34 74 °F 73 °F 29.8 in Calm     97% 0 in 0 W/m2
03:39 74 °F 73 °F 29.8 in Calm   1 mph 97% 0 in 0 W/m2
03:44 74 °F 73 °F 29.81 in Calm   1 mph 97% 0 in 0 W/m2
03:49 74 °F 73 °F 29.81 in Calm   1 mph 97% 0 in 0 W/m2
03:54 74 °F 73 °F 29.81 in SSW 1 mph 2 mph 97% 0 in 0 W/m2
03:59 74 °F 73 °F 29.82 in Calm   2 mph 97% 0 in 0 W/m2
04:04 74 °F 73 °F 29.82 in Calm   1 mph 97% 0 in 0 W/m2
04:09 74 °F 73 °F 29.82 in Calm     97% 0 in 0 W/m2
04:14 74 °F 73 °F 29.82 in Calm     97% 0 in 0 W/m2
04:19 73 °F 73 °F 29.82 in Calm     97% 0 in 0 W/m2
04:24 73 °F 72 °F 29.82 in Calm     97% 0 in 0 W/m2
04:29 73 °F 72 °F 29.82 in Calm     97% 0 in 0 W/m2
04:34 73 °F 72 °F 29.83 in Calm   1 mph 97% 0 in 0 W/m2
04:39 73 °F 72 °F 29.83 in Calm   1 mph 97% 0 in 0 W/m2
04:44 73 °F 72 °F 29.83 in Calm     97% 0 in 0 W/m2
04:49 73 °F 72 °F 29.83 in Calm     97% 0 in 0 W/m2
04:54 73 °F 72 °F 29.83 in Calm     97% 0 in 0 W/m2
04:59 73 °F 72 °F 29.83 in Calm     97% 0 in 0 W/m2
05:04 73 °F 72 °F 29.84 in Calm     97% 0 in 0 W/m2
05:09 73 °F 72 °F 29.84 in Calm     97% 0 in 0 W/m2
05:14 73 °F 72 °F 29.84 in Calm     97% 0 in 0 W/m2
05:19 73 °F 72 °F 29.84 in Calm     97% 0 in 0 W/m2
05:24 73 °F 72 °F 29.83 in Calm   1 mph 97% 0 in 0 W/m2
05:29 73 °F 72 °F 29.83 in Calm   1 mph 97% 0 in 1 W/m2
05:34 73 °F 72 °F 29.83 in Calm     97% 0 in 1 W/m2
05:39 73 °F 72 °F 29.82 in Calm     97% 0 in 2 W/m2
05:44 73 °F 72 °F 29.83 in Calm     97% 0 in 1 W/m2
05:49 73 °F 72 °F 29.83 in Calm     97% 0 in 2 W/m2
05:54 73 °F 72 °F 29.83 in Calm     97% 0 in 5 W/m2
05:59 73 °F 72 °F 29.83 in Calm     97% 0 in 4 W/m2
06:04 73 °F 72 °F 29.83 in Calm     97% 0 in 4 W/m2
06:09 73 °F 72 °F 29.83 in Calm     97% 0 in 6 W/m2
06:14 73 °F 72 °F 29.83 in Calm     97% 0 in 7 W/m2
06:19 73 °F 72 °F 29.83 in Calm     97% 0 in 12 W/m2
06:24 73 °F 72 °F 29.83 in Calm     97% 0 in 20 W/m2
06:29 73 °F 72 °F 29.83 in Calm     97% 0 in 26 W/m2
06:34 73 °F 72 °F 29.84 in Calm     97% 0 in 35 W/m2
06:39 73 °F 72 °F 29.84 in Calm     97% 0 in 38 W/m2
06:44 73 °F 72 °F 29.84 in Calm     97% 0 in 34 W/m2
06:49 73 °F 72 °F 29.84 in Calm     97% 0 in 26 W/m2
06:54 73 °F 72 °F 29.84 in Calm     97% 0 in 23 W/m2
06:59 73 °F 72 °F 29.84 in Calm     97% 0 in 17 W/m2
07:04 73 °F 72 °F 29.84 in Calm     97% 0 in 20 W/m2
07:09 73 °F 72 °F 29.84 in Calm     97% 0 in 23 W/m2
07:14 73 °F 72 °F 29.85 in Calm     97% 0 in 27 W/m2
07:19 73 °F 72 °F 29.85 in Calm     97% 0 in 31 W/m2
07:24 73 °F 72 °F 29.85 in Calm     97% 0 in 38 W/m2
07:28 73 °F 72 °F 29.85 in Calm     97% 0 in 38 W/m2
Miami Avenue - Newington, Connecticut, USA
Compliments of Weather Underground - 2 mb